{"data":{"norad_id":59382,"epoch":"2026-09-21T17:43:18.710400Z","epoch_age_seconds":55253,"freshness":"FRESH","line1":"1 59382U 24062J   26264.73841100  .00003292  00000+0  10847-3 0  9993","line2":"2 59382  53.1621  61.7540 0000913  57.1129 302.9962 15.34411373139699","mean_motion":15.34411373,"eccentricity":9.13e-5,"inclination_deg":53.1621,"raan_deg":61.754,"arg_perigee_deg":57.1129,"mean_anomaly_deg":302.9962,"bstar":0.00010847,"rev_number":13969,"period_min":93.847062485244,"perigee_km":462.0448718354,"apogee_km":463.29400309088,"semimajor_km":6840.8064374631,"source":"CELESTRAK","updated_at":"2026-09-22T09:00:48.909495Z"}}